Terug naar catalogus

ARIANE 44P R/B

ActiefGTO
NORAD 21727·ROCKET BODY·🇫🇷 France

Gelanceerd Sep 26, 1991 vanaf Guiana Space Centre

Loading…

TLE

VerouderendSource: Space-Track

Epoch: Sep 14, 2026, 12:21 UTC

1 21727U 91067B   26257.51506134  .00000018  00000-0  32329-3 0  9990
2 21727   4.5783  19.3177 7164803  27.8536 356.5071  2.34134688256577

Volg ARIANE 44P R/B in realtime met AllMySat

Download on the App Store